Find Starlink 38164

NORAD ID: 100224 Int'l Des: 2026-177 Owner: SPXS Country: US Constellation: starlink operational

当前视图

正在加载3D地球...

About Starlink 38164

Starlink 38164 (NORAD 100224) is a starlink constellation satellite launched Aug 4, 2026 by SPXS of US. with a mass of 575.00 kg.

即将过境

Passes for default location (London). Set your location on the main map for personalized predictions.

高度历史

Loading altitude history...

两行轨道根数

1 A0224U 26177M 26235.61662203 .00080630 00000-0 53607-3 0 9996
2 A0224 97.2845 285.5385 0001104 91.1183 269.0209 15.75202534 3926
Epoch: Aug 23, 2026 • Age: 11 hours

当前状态

高度 348.3 km
远地点 / 近地点 N/A
速度 7.70 km/s
星下点 35.21°N, 75.8°W
发射日期 Aug 4, 2026
运行时间 19 days
类型 internet

技术详情

分类 Payload
质量 575.00 kg
干质量 530.00 kg
总质量 575.00 kg
长度 0.30 m
直径 4.10 m
跨度 29.00 m
形状 Box + pan
制造商 SPXS
平台类型 Starlink V2MO
阶段状态 In Orbit
所有者/国家 SPXS/US

Most Searched